TimeCDT,TemperatureF,Dew PointF,Humidity,Sea Level PressureIn,VisibilityMPH,Wind Direction,Wind SpeedMPH,Gust SpeedMPH,PrecipitationIn,Events,Conditions,WindDirDegrees,DateUTC
12:56 AM,64.4,64.4,100,29.96,2.0,Calm,Calm,-,N/A,,Clear,0,2013-05-23 05:56:00
12:58 AM,64.0,63.0,96,29.95,2.0,Calm,Calm,-,N/A,,Clear,0,2013-05-23 05:58:00
1:06 AM,64.4,62.6,94,29.96,10.0,Calm,Calm,-,N/A,,Clear,0,2013-05-23 06:06:00
1:58 AM,64.0,63.0,96,29.95,10.0,Calm,Calm,-,N/A,,Clear,0,2013-05-23 06:58:00
2:25 AM,64.4,62.6,94,29.96,9.0,Calm,Calm,-,N/A,,Clear,0,2013-05-23 07:25:00
2:37 AM,64.4,62.6,94,29.96,2.5,SSW,3.5,-,N/A,,Partly Cloudy,210,2013-05-23 07:37:00
2:46 AM,62.6,62.6,100,29.96,1.8,Calm,Calm,-,N/A,,Scattered Clouds,0,2013-05-23 07:46:00
2:49 AM,62.6,62.6,100,29.96,3.0,Calm,Calm,-,N/A,,Scattered Clouds,0,2013-05-23 07:49:00
2:58 AM,63.0,63.0,100,29.96,6.0,Calm,Calm,-,N/A,,Mostly Cloudy,0,2013-05-23 07:58:00
3:08 AM,62.6,62.6,100,29.97,2.0,Calm,Calm,-,N/A,,Mostly Cloudy,0,2013-05-23 08:08:00
3:15 AM,62.6,62.6,100,29.97,8.0,Calm,Calm,-,N/A,,Scattered Clouds,0,2013-05-23 08:15:00
3:22 AM,62.6,62.6,100,29.97,2.5,Calm,Calm,-,N/A,,Scattered Clouds,0,2013-05-23 08:22:00
3:26 AM,62.6,62.6,100,29.97,1.8,Calm,Calm,-,N/A,,Scattered Clouds,0,2013-05-23 08:26:00
3:32 AM,62.6,60.8,94,29.98,3.0,Calm,Calm,-,N/A,,Mostly Cloudy,0,2013-05-23 08:32:00
3:58 AM,62.1,61.0,96,29.98,10.0,Calm,Calm,-,N/A,,Scattered Clouds,0,2013-05-23 08:58:00
4:49 AM,60.8,60.8,100,29.99,1.8,Calm,Calm,-,N/A,,Scattered Clouds,0,2013-05-23 09:49:00
4:53 AM,60.8,60.8,100,29.99,0.8,Calm,Calm,-,N/A,,Mist,0,2013-05-23 09:53:00
4:58 AM,61.0,60.1,97,29.99,0.5,Calm,Calm,-,N/A,Fog,Fog,0,2013-05-23 09:58:00
5:12 AM,60.8,60.8,100,30.00,0.8,Calm,Calm,-,N/A,,Mist,0,2013-05-23 10:12:00
5:24 AM,60.8,60.8,100,30.00,0.5,Calm,Calm,-,N/A,Fog,Fog,0,2013-05-23 10:24:00
5:42 AM,62.6,60.8,94,30.01,0.5,Calm,Calm,-,N/A,Fog,Fog,0,2013-05-23 10:42:00
5:49 AM,62.6,62.6,100,30.01,0.2,Calm,Calm,-,N/A,Fog,Fog,0,2013-05-23 10:49:00
5:56 AM,62.6,62.6,100,30.02,0.2,Calm,Calm,-,0.01,Fog,Fog,0,2013-05-23 10:56:00
5:58 AM,62.1,62.1,100,30.01,0.2,Calm,Calm,-,0.01,Fog,Fog,0,2013-05-23 10:58:00
6:10 AM,62.6,62.6,100,30.02,1.0,Calm,Calm,-,N/A,,Overcast,0,2013-05-23 11:10:00
6:14 AM,62.6,62.6,100,30.02,3.0,Calm,Calm,-,N/A,,Overcast,0,2013-05-23 11:14:00
6:24 AM,62.6,62.6,100,30.03,0.8,Calm,Calm,-,N/A,,Overcast,0,2013-05-23 11:24:00
6:58 AM,64.0,64.0,100,30.03,0.2,Calm,Calm,-,N/A,Fog,Fog,0,2013-05-23 11:58:00
7:07 AM,64.4,64.4,100,30.03,0.2,Calm,Calm,-,N/A,Fog,Fog,0,2013-05-23 12:07:00
7:15 AM,64.4,64.4,100,30.04,0.2,Calm,Calm,-,N/A,Fog,Fog,0,2013-05-23 12:15:00
7:34 AM,64.4,64.4,100,30.04,0.2,Calm,Calm,-,N/A,Fog,Fog,0,2013-05-23 12:34:00
7:58 AM,66.0,66.0,100,30.04,0.2,Calm,Calm,-,N/A,Fog,Fog,0,2013-05-23 12:58:00
8:01 AM,66.2,66.2,100,30.05,0.5,Calm,Calm,-,N/A,Fog,Fog,0,2013-05-23 13:01:00
8:26 AM,68.0,68.0,100,30.05,1.5,Calm,Calm,-,N/A,,Overcast,0,2013-05-23 13:26:00
8:38 AM,68.0,68.0,100,30.06,2.5,Calm,Calm,-,N/A,,Overcast,0,2013-05-23 13:38:00
8:58 AM,69.1,69.1,100,30.05,5.0,Calm,Calm,-,N/A,,Overcast,0,2013-05-23 13:58:00
9:16 AM,71.6,69.8,94,30.05,9.0,Calm,Calm,-,N/A,,Scattered Clouds,0,2013-05-23 14:16:00
9:56 AM,78.8,69.8,74,30.05,10.0,NNW,5.8,-,N/A,,Mostly Cloudy,330,2013-05-23 14:56:00
9:58 AM,78.1,70.0,76,30.04,10.0,Variable,3.5,-,N/A,,Mostly Cloudy,0,2013-05-23 14:58:00
10:06 AM,78.8,69.8,74,30.05,10.0,NNW,4.6,-,N/A,,Mostly Cloudy,330,2013-05-23 15:06:00
10:15 AM,80.6,69.8,70,30.04,10.0,NW,3.5,-,N/A,,Scattered Clouds,320,2013-05-23 15:15:00
10:58 AM,82.0,64.0,54,30.04,10.0,NNW,5.8,-,N/A,,Clear,340,2013-05-23 15:58:00
11:58 AM,82.9,64.0,53,30.05,10.0,Calm,Calm,-,N/A,,Clear,0,2013-05-23 16:58:00
12:58 PM,84.0,63.0,49,30.04,10.0,Calm,Calm,-,N/A,,Clear,0,2013-05-23 17:58:00
1:58 PM,86.0,62.1,44,30.03,10.0,Variable,5.8,-,N/A,,Clear,0,2013-05-23 18:58:00
2:58 PM,87.1,62.1,43,30.01,10.0,West,6.9,-,N/A,,Clear,280,2013-05-23 19:58:00
3:58 PM,87.1,63.0,44,30.00,10.0,WSW,8.1,-,N/A,,Scattered Clouds,250,2013-05-23 20:58:00
4:58 PM,86.0,63.0,46,30.00,10.0,WNW,6.9,-,N/A,,Partly Cloudy,300,2013-05-23 21:58:00
5:58 PM,84.9,60.1,43,30.00,10.0,NW,6.9,-,N/A,,Clear,310,2013-05-23 22:58:00
6:58 PM,82.9,64.9,54,29.99,10.0,NW,3.5,-,N/A,,Clear,320,2013-05-23 23:58:00
7:58 PM,75.9,69.1,79,30.01,10.0,Calm,Calm,-,0.01,,Clear,0,2013-05-24 00:58:00
8:58 PM,71.1,66.9,87,30.02,10.0,Calm,Calm,-,N/A,,Clear,0,2013-05-24 01:58:00
9:58 PM,69.1,66.9,93,30.04,10.0,Calm,Calm,-,N/A,,Clear,0,2013-05-24 02:58:00
10:58 PM,68.0,66.0,93,30.05,10.0,Calm,Calm,-,N/A,,Clear,0,2013-05-24 03:58:00
11:58 PM,66.0,64.0,93,30.05,10.0,Calm,Calm,-,N/A,,Clear,0,2013-05-24 04:58:00